STARLINK-32124, 60298

Orbit data source: Space-Track

STARLINK-32124, 60298 is a payload satellite owned by SpaceX/Seattle (US) in LEO that was launched on Sun, 28 Jul 2024 UTC via an FALCON 9 launch vehicle from the Air Force Eastern Test Range (AFETR). Payload-class satellites include a variety of spacecraft equipped with specific instruments for various scientific and technological missions. These include communications satellites like Starlink; space stations such as the ISS; scientific satellites like the Hubble; Earth observation satellites from companies like Planet Labs, Umbra, and HawkEye 360; GPS; miniature CubeSats for education and research; and military/defense satellites.

Loading next visibility...
Identifier
60298, 2024-132W
Orbit
LEO
Country
Flag of USUS
Related business
Manufacturer
SpaceX/Seattle
Mission
Operational Commercial Communications
Bus & Motor
STARLINK V2M, Unknown motor
Mass
730 kg wet, ~700 kg dry
Launch date (UTC)
2024-07-28 (2 years ago)
Launch vehicle
FALCON 9
Launch site
Air Force Eastern Test Range (AFETR)
Object type
Payload
Rocket body
Debris
Shape & HBR
Box + 2 Pan, 17.7 m
Radar Cross Section
33.884 m², Large (>1 m²)

Expand to show TLE details & history
Last TLE update: 7 hours ago

TLE from 7 hours ago
0 STARLINK-32124
1 60298U 24132W   26124.58335648  .00040327  00000-0  13049-2 0  9999
2 60298  53.1573 152.9271 0000991  82.9938  13.9785 15.31684209  5878
Epoch: 2026-05-04T14:00Z
TLE epoch observation values (Epoch: 2026-05-04T14:00:01.999Z)
Latitude
52.74696°
Longitude
-178.00681°
Altitude
476.574 km
Speed
7.634 km/s
True Right ascension
16h 57m 53s
True Declination
52° 34' 27"
Sunlit
Object was in daylight at epoch
Visualization orbit readout
Latitude
Unknown
Longitude
Unknown
Altitude
Unknown
Speed
Unknown
Apparent Right ascension
Unknown
Apparent Declination
Unknown
Sunlit
N/A
Visualization observer readout
Local Sidereal Time
04:57:18
Azimuth
Unknown
Elevation
Unknown
Doppler factor
Unknown
Orbital elements
Apogee altitude
471.723 km
Perigee altitude
470.365 km
Semi-major axis
6,849.181 km
Eccentricity
0.0001
Inclination
53.1573°
RAAN
152.9271°
Arg. of periapsis
82.9938°
True anomaly
13.98124°
Mean anomaly
13.9785°
Eccentric anomaly
13.97987°
Mean motion
3.829 °/min
Orbital period
94.02 mins
BSTAR
0.0013049
Loading maneuver chart data...
Computing Atmospheric mass density...
Loading historical data...
Loading historical data...
Loading historical data...
Loading historical data...
Loading historical data...
Loading historical data...
Loading historical data...

Documentation

Showing up to 5 results
|